Regional Weather Roundup
Issued by NWS Jackson, KY

Home | Current Version | Previous Version | Text Only | Print | Product List | Glossary Off
Versions: 1 2 3 4 5 6 7 8 9 10 11 12 13 14 15 16 17 18 19 20 21 22 23 24 25 26 27 28

000
ASUS43 KJKL 231110
RWRJKL

EAST KENTUCKY HOURLY WEATHER ROUNDUP
NATIONAL WEATHER SERVICE JACKSON KY
600 AM EST THU FEB 23 2017

NOTE: "FAIR" INDICATES FEW OR NO CLOUDS BELOW 12,000 FEET WITH
NO SIGNIFICANT WEATHER AND/OR OBSTRUCTIONS TO VISIBILITY.

* THESE REPORTS ARE NOT UNDER NWS QUALITY CONTROL AND MAY NOT
  REPORT WEATHER SUCH AS PRECIPITATION AND FOG.

KYZ079-080-083-085-087-088-110-112-115-119-120-231200
...EASTERN KENTUCKY...

CITY           SKY/WX    TMP DP  RH WIND       PRES   REMARKS
JACKSON        MOCLDY    53  50  89 SW5       29.88R
LONDON         FOG       45  43  93 CALM      29.88R VSB 1/4
SOMERSET*      PTCLDY    52  52 100 CALM      29.89R FOG
MONTICELLO*    FOG       46  46 100 CALM      29.88S VSB 3/4
WILLIAMSBURG*  CLOUDY    46  46 100 CALM      29.88S VSB 1/4
MIDDLESBORO*   FOG       44  44 100 CALM      29.91R VSB 1/4
HARLAN APT*    CLOUDY    48  46  93 CALM      29.91R VSB 1/4
PIKE CO APT*     N/A     52  52 100 SE3       29.88R
BIG SANDY APT* SUNNY     53  52  98 SW5       29.88R
MOREHEAD APT*  CLOUDY    55  54  94 S3        29.87S
ASHLAND*       CLOUDY    52  50  93 SE5       29.84R
$$

KYZ035-036-041-042-044-050-067-078-099-231200
...CENTRAL KENTUCKY...

CITY           SKY/WX    TMP DP  RH WIND       PRES   REMARKS
MT STERLING*   CLOUDY    55  54  94 SW6       29.87S
FLEMING/MASON* CLOUDY    55  54  95 S8        29.85S
DANVILLE*      MOCLDY    52  52 100 SW5       29.87S
LEXINGTON      CLOUDY    55  52  89 S7        29.85R
FRANKFORT      CLOUDY    57  53  86 S5        29.83R
LOUISVILLE     MOCLDY    61  55  81 S6        29.82R
LEBANON*         N/A     57  55  94 S6        29.85R
GLASGOW*       PTCLDY   N/A N/A N/A CALM      29.85R
BOWLING GREEN  FOG       52  51  97 CALM      29.85R VSB 1/4
$$

KYZ091>093-OHZ055-061-077-WVZ005-015-034-035-042-231200
...SOUTHERN OHIO/WEST VIRGINIA...

CITY           SKY/WX    TMP DP  RH WIND       PRES   REMARKS
COVINGTON      CLOUDY    59  56  89 SW9       29.81R
COLUMBUS       CLOUDY    57  55  93 S6        29.79R
DAYTON         PTCLDY    56  54  93 SW13      29.78S
WILMINGTON     CLOUDY    57  55  93 SW9       29.80R
HUNTINGTON     PTCLDY    52  50  93 S6        29.86R
CHARLESTON     PTCLDY    48  46  93 CALM      29.86S FOG
PINEVILLE*     FOG       44  41  90 MISG      29.96S VSB 1
BECKLEY        CLOUDY    51  49  92 S3        29.92R
BLUEFIELD      CLOUDY    50  46  86 CALM      29.94R
LOGAN CO APT*  PTSUNNY   52  52 100 CALM      29.88S
$$

VAZ002-007-008-TNZ017-027-036-066-071-231200
...SOUTHWEST VIRGINIA/EAST TENNESSEE...

CITY           SKY/WX    TMP DP  RH WIND       PRES   REMARKS
WISE*          PTCLDY    48  48 100 CALM      29.93R
JONESVILLE*    FOG       45  45 100 CALM      29.94R VSB 1/4
ABINGDON*      CLEAR     44  44 100 E5        29.93R FOG
BRISTOL        FOG       44  43  96 CALM      29.93R VSB 1/16
MORRISTOWN*    FOG       45  45 100 CALM      29.90S VSB 0
SEVIERVILLE*   CLOUDY    48  48 100 CALM      29.91R VSB 1/2
KNOXVILLE      FOG       53  53 100 E5        29.89S VSB 1/8
LAFOLLETTE*    CLOUDY    52  52 100 CALM      29.93R
OAK RIDGE      FOG       52  51  97 CALM      29.92R VSB 1/2
CROSSVILLE     CLEAR     54  52  93 S3        29.90R
NASHVILLE      CLEAR     55  53  93 CALM      29.84R
$$

...KEY TO REMARKS...
VSB - VISIBILITY IN MILES
WCI - WIND CHILL INDEX
HX  - HEAT INDEX

$$




USA.gov is the U.S. government's official web portal to all federal, state and local government web resources and services.